Satellite: NCUBE2
Catalog number: 28897
Epoch time:      07060.71356022
Element set:    0192
Inclination:      098.1433 deg
RA of node:       319.5647 deg
Eccentricity:    0.0018214
Arg of perigee:   088.4033 deg
Mean anomaly:     271.9266 deg
Mean motion:   14.59679473 rev/day
Decay rate:       1.39e-06 rev/day^2
Epoch rev:           06369
Checksum:              326

Satellite: NMARS
Catalog number: 29662
Epoch time:      07061.82486994
Element set:      94
Inclination:      051.6386 deg
RA of node:       288.5976 deg
Eccentricity:    0.0009649
Arg of perigee:   273.1616 deg
Mean anomaly:     086.8297 deg
Mean motion:   15.91887745 rev/day
Decay rate:    1.05672e-03 rev/day^2
Epoch rev:            1129
Checksum:              365

Satellite: FCAL
Catalog number: 29664
Epoch time:      07061.90632784
Element set:      71
Inclination:      051.6348 deg
RA of node:       289.8786 deg
Eccentricity:    0.0014103
Arg of perigee:   285.1433 deg
Mean anomaly:     074.8009 deg
Mean motion:   15.85138827 rev/day
Decay rate:     2.8531e-04 rev/day^2
Epoch rev:            1126
Checksum:              310

/EX






More information about the Keps mailing list